Miscellaneous Local Product
Issued by NWS North Platte, NE

Home | Current Version | Previous Version | Text Only | Print | Product List | Glossary On
Versions: 1 2 3 4 5 6 7 8 9 10 11 12 13 14 15 16 17 18 19 20 21 22 23 24 25 26 27 28 29 30 31 32 33 34 35 36 37 38 39 40 41 42 43 44 45 46 47 48 49 50
000
AXUS43 KLBF 171510
MISLBF


WESTERN AND NORTH CENTRAL NEBRASKA HOURLY WEATHER ROUNDUP
NATIONAL WEATHER SERVICE NORTH PLATTE NE
1000 AM CDT THU APR 17 2014

***STATIONS NOT REPORTING VARIABLES SUCH AS SKY/WEATHER OR
PRESSURE ARE PROVIDED BY THE NEBRASKA DEPARTMENT OF
ROADS...RAWS...AND APRS NETWORKS...AND ARE NOT UNDER
NATIONAL WEATHER SERVICE QUALITY CONTROL***

...OBSERVATIONS IN AND NEAR THE EASTERN PANHANDLE OF NEBRASKA...

CITY           SKY/WX    TMP DP  RH WIND       PRES   REMARKS
PINE RIDGE     CLOUDY    35  28  75 S9        30.17S WCI  28
CHADRON        CLOUDY    37  31  78 S15       30.16S WCI  28
ALLIANCE       CLOUDY    35  29  78 S17       30.15F WCI  25
SIDNEY         FOG       32  31  96 S13       30.16F VSB 1/2 WCI  22
WHITECLAY        N/A     33  28  80 S16         N/A  WCI  23
CRESCENT LAKE    N/A     34  31  88 S6G14       N/A  WCI  29
LISCO            N/A     34  27  75 E12         N/A  WCI  26
BIG SPRINGS      N/A     32  29  88 SE3         N/A
LEWELLEN         N/A     30  27  86 S10         N/A  WCI  21
$$

...OBSERVATIONS IN SOUTHWEST NEBRASKA AND FAR NORTHEAST COLORADO...

CITY           SKY/WX    TMP DP  RH WIND       PRES   REMARKS
WRAY           CLOUDY   N/A N/A N/A SE7       30.23S FOG
HOLYOKE        CLOUDY    34  32  93 SE10      30.22R FOG     WCI  26
IMPERIAL       CLOUDY    31  27  85 E9        30.25S FOG     WCI  23
OGALLALA       CLOUDY    32  27  80 SE7       30.24R WCI  26
NORTH PLATTE   CLOUDY    32  23  69 E6        30.28S WCI  26
MCCOOK         CLOUDY    32  25  75 NE8       30.31R WCI  25
LEXINGTON      CLOUDY    31  25  79 E6        30.31S WCI  25
PAXTON           N/A     31  28  86 NE6         N/A  WCI  25
SUTHERLAND       N/A     26  23  86 CALM        N/A
MEDICINE CREEK   N/A     31  26  81 CALM        N/A
GOTHENBURG       N/A     31  25  79 CALM        N/A
CALLAWAY         N/A     28  24  83 CALM        N/A
$$

...OBSERVATIONS IN NORTH CENTRAL NEBRASKA...

CITY           SKY/WX    TMP DP  RH WIND       PRES   REMARKS
VALENTINE      CLOUDY    32  22  66 E5        30.26S WCI  27
THEDFORD       SUNNY     33  23  66 E5        30.26R WCI  29
AINSWORTH      SUNNY     33  24  70 E3        30.27S
O`NEILL        SUNNY     33  21  60 NE6       30.32R WCI  28
ORD            SUNNY     34  22  61 N5        30.31S WCI  30
BROKEN BOW     SUNNY     33  24  69 E8        30.29S WCI  26
BROWNLEE         N/A     30  19  64 E5          N/A  WCI  25
SPRINGVIEW       N/A     33  24  71 CALM        N/A
DUNNING          N/A     30  23  74 E5          N/A  WCI  25
BREWSTER         N/A     32  22  66 NE5         N/A  WCI  28
ROSE             N/A     33  24  69 CALM        N/A
NEWPORT          N/A     35  23  63 E3          N/A
COMSTOCK         N/A     36  25  63 NE3         N/A
CHAMBERS         N/A     36  21  53 E3G12       N/A
EWING            N/A     34  22  62 N3          N/A
$$

...SOME WEATHER OBSERVATIONS FROM AROUND THE REGION...

CITY           SKY/WX    TMP DP  RH WIND       PRES   REMARKS
DENVER         MOSUNNY   44  31  60 W8        30.09S
LARAMIE        SUNNY     35  18  49 CALM      30.08S
CHEYENNE       MOSUNNY   34  31  88 S6        30.08S WCI  29
SCOTTSBLUFF    CLOUDY    37  32  82 S8        30.15F WCI  31
RAPID CITY     CLOUDY    36  29  75 S16G24    30.14S WCI  26
PIERRE         CLOUDY    34  22  61 SE10      30.29S WCI  26
WINNER         CLOUDY    35  23  61 E3        30.30S
SIOUX FALLS    MOSUNNY   29  23  78 N12       30.31S WCI  19
OMAHA          PTSUNNY   35  24  64 NW14      30.34R WCI  26
GRAND ISLAND   MOSUNNY   36  25  64 N9        30.31S WCI  29
KANSAS CITY    CLOUDY    38  29  70 N13       30.28R WCI  30
WICHITA        CLOUDY    40  29  64 NE12      30.28R WCI  33
HAYS           CLOUDY    36  25  64 NE9       30.31R WCI  29
LIBERAL        CLOUDY    37  32  81 NE7       30.27R WCI  32
GOODLAND       CLOUDY    32  29  88 SE8       30.26R WCI  25
$$



USA.gov is the U.S. government's official web portal to all federal, state and local government web resources and services.